This is the latest recevied weather packets stored in our database for station/object vk4zu-13. If no packets are shown the sender has not sent any weather packets the latest 10 day(s).
| Time | Temp. | Humidity | Pressure | Rain* | Wind** | Luminosity | Snow |
|---|---|---|---|---|---|---|---|
| 1777527385 | 20° C | 86% | 1024.8 hPa | 0 mm | - | 49 W/m² | - |
| 1777527326 | 20° C | 86% | 1024.9 hPa | 0 mm | - | 60 W/m² | - |
| 1777527265 | 20° C | 86% | 1024.9 hPa | 0 mm | - | 63 W/m² | - |
| 1777527197 | 20° C | 86% | 1024.9 hPa | 0 mm | - | 63 W/m² | - |
| 1777527139 | 20° C | 86% | 1024.8 hPa | 0 mm | - | 69 W/m² | - |
| 1777527072 | 20° C | 86% | 1024.7 hPa | 0 mm | - | 69 W/m² | - |
| 1777527001 | 20° C | 86% | 1024.8 hPa | 0 mm | - | 70 W/m² | - |
| 1777526940 | 20° C | 86% | 1024.6 hPa | 0 mm | - | 70 W/m² | - |
| 1777526878 | 20° C | 86% | 1024.7 hPa | 0 mm | - | 67 W/m² | - |
| 1777526817 | 20° C | 85% | 1024.8 hPa | 0 mm | - | 67 W/m² | - |
| 1777526747 | 20° C | 86% | 1024.8 hPa | 0 mm | - | 69 W/m² | - |
| 1777526679 | 20° C | 85% | 1024.7 hPa | 0 mm | - | 70 W/m² | - |
| 1777526614 | 20° C | 85% | 1024.8 hPa | 0 mm | - | 69 W/m² | - |
| 1777526543 | 20.56° C | 86% | 1024.8 hPa | 0 mm | - | 72 W/m² | - |
| 1777526476 | 20.56° C | 85% | 1024.8 hPa | 0 mm | - | 72 W/m² | - |
| 1777526410 | 20.56° C | 85% | 1024.8 hPa | 0 mm | - | 72 W/m² | - |
| 1777526340 | 20° C | 85% | 1025 hPa | 0 mm | - | 74 W/m² | - |
| 1777526279 | 20° C | 85% | 1025 hPa | 0 mm | - | 74 W/m² | - |
| 1777526219 | 20° C | 85% | 1024.8 hPa | 0 mm | - | 77 W/m² | - |
| 1777526151 | 20° C | 85% | 1025 hPa | 0 mm | - | 77 W/m² | - |
| 1777526087 | 20° C | 85% | 1025 hPa | 0 mm | - | 81 W/m² | - |
| 1777526025 | 20° C | 86% | 1024.8 hPa | 0 mm | - | 86 W/m² | - |
| 1777525962 | 20° C | 87% | 1024.9 hPa | 0 mm | - | 91 W/m² | - |
| 1777525894 | 20° C | 86% | 1024.8 hPa | 0 mm | - | 90 W/m² | - |
| 1777525829 | 20° C | 87% | 1024.9 hPa | 0.25 mm | - | 90 W/m² | - |
* Rain latest hour (hover to see other rain measurements)
** Current wind speed in m/s (hover to see current wind gust speed)